Location: Dompnac
(44.5644°N, 4.1026°E)
Time: 11:36:36
(UTC+00:00)

Lacrosse 5 rocket - Pass Details

Date: 19 September 2020
Orbit: 460 x 636 km, 57.0° (Epoch: 29 October)

Event Time Altitude Azimuth Distance (km) Brightness Sun altitude
Rises 19:40:41 0° 293° (WNW) 2,783 6.5 -20.7°
Reaches altitude 10° 19:43:37 10° 314° (NW) 1,921 5.1 -21.1°
Maximum altitude 19:46:29 17° 355° (N) 1,558 3.9 -21.6°
Enters shadow 19:49:24 10° 35° (NE) 1,976 4.0 -22.1°
